Tracking 19476 objects as of 17-Jan-2019
HD Live streaming from Space Station
objects crossing your sky now

COSMOS 2071

Track COSMOS 2071 now!
10-day predictions
COSMOS 2071 is classified as:


NORAD ID: 20556
Int'l Code: 1990-029H
Perigee: 1,465.7 km
Apogee: 1,470.1 km
Inclination: 74.0 °
Period: 115.1 minutes
Semi major axis: 7838 km
RCS: 0.7084 m2 (medium)
Launch date: April 6, 1990
Source: Commonwealth of Independent States (former USSR) (CIS)
Launch site: PLESETSK MISSILE AND SPACE COMPLEX (PKMTR)
aabbcc
Your satellite tracking list
Your tracking list is empty




NASA's NSSDC Master Catalog

Two Line Element Set (TLE):
1 20556U 90029H   19017.09916396 -.00000008  00000-0  53822-4 0  9992
2 20556  73.9805 257.3735 0002807 179.3070 335.0455 12.50897396314551
Source of the keplerian elements: AFSPC